Location: Unspecified
(0.0000°N, 0.0000°E)
Time: 11:13:53
(UTC+00:00)

Vanguard 1 Rocket - Pass Details

Date: 27 November 2019
Orbit: 650 x 4226 km, 34.3° (Epoch: 14 December)

Event Time Altitude Azimuth Distance (km) Brightness Sun altitude
Rises 19:23:51 0° 228° (SW) 8,457 13.6 -22.3°
Reaches altitude 10° 19:30:14 10° 225° (SW) 7,283 12.9 -23.8°
Maximum altitude 19:53:30 64° 147° (SSE) 3,100 9.8 -29.1°
Enters shadow 19:59:08 44° 87° (E) 3,100 9.5 -30.4°
Drops below altitude 10° 20:05:58 10° 68° (ENE) 4,248 - -32.0°
Sets 20:08:34 0° 64° (ENE) 4,899 - -32.5°
